[[{"header":{"parameterUnit":"m.s-1","parameterCategory":2,"la1":30.2991,"la2":30.254,"lo1":-89.0895,"lo2":-89.0444,"dy":0.0017,"dx":0.0017,"nx":28,"ny":28,"refTime":"2025-04-03T09:00:00:Z","depth":"0","parameterNumber":2,"parameterNumberName":"U-component_of_CURRENTS"},"data":[0,0,0,0,0,0,0,0,0,0,0,0,0,0,0,0,0,0,0,0,0,0,0,0,0,0,0,0,0,0,0,0,0,0,0,0,0,0,0,0,0,0,0,0,0,0,0,0,0,0,0,0,0,0,0,0,0,0,0.2328,0.2329,0,0.2349,0.2349,0.2349,0.2321,0.232,0.232,0.2319,0.2328,0.2329,0.2329,0,0,0,0,0,0,0,0,0,0,0,0,0,0.2255,0.2256,0.2328,0.2329,0.2329,0.2349,0.2349,0.2349,0.2321,0.232,0.232,0.2319,0.2328,0.2329,0.233,0,0,0,0,0,0,0,0,0,0,0,0,0,0.2279,0.2257,0.2328,0.2321,0.2321,0.2349,0.2349,0.2349,0.2321,0.232,0.2319,0.2318,0.2327,0.2328,0.233,0.2357,0,0,0.2334,0.2334,0,0,0,0,0,0,0,0,0.2277,0.2281,0.2321,0.2321,0.2321,0.2335,0.2326,0.2352,0.2321,0.2317,0.2319,0.2318,0.2332,0.2333,0.2334,0.2357,0.2358,0.2334,0.2334,0.2335,0.2335,0,0,0,0,0,0,0,0.2276,0.228,0.2332,0.2322,0.2322,0.2313,0.2315,0.2331,0.2327,0.2317,0.2316,0.2325,0.2331,0.2333,0.2334,0.2358,0.2334,0.2335,0.2336,0.2336,0.241,0.2411,0,0,0,0,0,0,0.2283,0.2279,0.2332,0.2333,0.2301,0.2316,0.2318,0.2328,0.2327,0.2327,0.2326,0.2324,0.2331,0.2332,0.2334,0.2354,0.2335,0.2336,0.2337,0.2409,0.241,0.2411,0,0,0,0,0,0,0.2281,0.2288,0.2331,0.2309,0.2315,0.2319,0.233,0.2329,0.2333,0.2334,0.2333,0.2331,0.233,0.2332,0.2363,0.2355,0.2337,0.2338,0.2407,0.2409,0.2411,0.2403,0,0,0,0,0,0,0.2279,0.2287,0.2297,0.231,0.2316,0.2363,0.2332,0.233,0.2341,0.2338,0.2338,0.2338,0.233,0.2362,0.2364,0.2356,0.2339,0.2406,0.2408,0.241,0.2402,0.2404,0.2407,0,0,0,0,0,0.2276,0.2298,0.2298,0.2304,0.233,0.2365,0.2368,0.2364,0.2343,0.2359,0.2358,0.2338,0.2377,0.2364,0.2367,0.2359,0.2405,0.2407,0.241,0.2401,0.2404,0.2407,0,0,0,0,0,0,0.2275,0.2298,0.2298,0.2326,0.2351,0.2362,0.2375,0.2371,0.2381,0.237,0.2363,0.2364,0.2382,0.2387,0.2373,0.2391,0.2384,0.2388,0.2376,0.2379,0.2381,0.2379,0.234,0,0,0,0,0,0.2281,0.2299,0.2325,0.2349,0.2361,0.2368,0.2379,0.2377,0.2389,0.239,0.239,0.2392,0.2397,0.2402,0.2412,0.2432,0.2447,0.2429,0.2431,0.2433,0.2436,0.2463,0.2468,0.242,0.242,0.242,0,0,0.2288,0.2304,0.2314,0.235,0.2362,0.2376,0.2372,0.2393,0.2394,0.2392,0.2397,0.2404,0.2407,0.242,0.2428,0.2422,0.2458,0.2436,0.2437,0.244,0.2466,0.2471,0.2475,0.2422,0.2422,0.2422,0,0,0.2303,0.2326,0.2338,0.2359,0.2385,0.239,0.2399,0.2415,0.2415,0.2434,0.2421,0.2434,0.2448,0.2444,0.2443,0.2473,0.2471,0.2472,0.2478,0.2504,0.2507,0.2511,0.2544,0.255,0.2471,0.2471,0.2471,0,0.2311,0.2322,0.2351,0.2366,0.2376,0.2395,0.2403,0.2414,0.2435,0.2442,0.2437,0.2455,0.2454,0.2462,0.2465,0.2473,0.2496,0.2459,0.2505,0.2508,0.2512,0.2545,0.2552,0.2471,0.2471,0.2471,0.2471,0,0.2323,0.2334,0.2348,0.2363,0.2385,0.2401,0.242,0.2438,0.2436,0.2443,0.2464,0.2473,0.2484,0.248,0.2477,0.2497,0.2509,0.2503,0.249,0.2516,0.255,0.2558,0.2471,0.2471,0.2471,0.2471,0,0,0.2318,0.2348,0.2346,0.2348,0.2378,0.2395,0.2412,0.2434,0.2444,0.2463,0.2478,0.2482,0.2494,0.2497,0.2497,0.2514,0.2552,0.2518,0.252,0.254,0.2623,0.2639,0.2649,0.2554,0.2555,0.2556,0.2639,0,0.2309,0.2322,0.234,0.2346,0.2353,0.2382,0.2399,0.2425,0.2447,0.2476,0.2489,0.2508,0.2499,0.2507,0.2523,0.255,0.2571,0.2531,0.2606,0.2608,0.261,0.2657,0.2624,0.2697,0.2646,0.2648,0.2648,0,0.2291,0.2303,0.2306,0.2329,0.2336,0.2346,0.2378,0.24,0.2451,0.2472,0.2503,0.2527,0.2559,0.2545,0.2606,0.2584,0.2604,0.262,0.2624,0.2646,0.2639,0.2664,0.2712,0.2698,0.266,0.2659,0.2658,0,0.2244,0.2269,0.2266,0.2275,0.2314,0.2321,0.2343,0.2393,0.2417,0.2479,0.2508,0.2555,0.2586,0.2619,0.2661,0.264,0.2734,0.2706,0.274,0.2742,0.2732,0.2731,0.2764,0.2745,0.2745,0.2745,0.2745,0,0.2209,0.2203,0.2245,0.2241,0.2244,0.2291,0.2304,0.2342,0.2406,0.244,0.2504,0.2545,0.2607,0.2668,0.2689,0.2755,0.2761,0.2758,0.2769,0.2731,0.2729,0.2731,0.2697,0.2748,0.2747,0.2747,0.2746,0,0.2143,0.2171,0.2167,0.2206,0.2217,0.2218,0.2266,0.2289,0.2363,0.2415,0.2439,0.2553,0.265,0.2715,0.2789,0.2799,0.2795,0.2863,0.2823,0.2827,0.2832,0.2799,0.2703,0.2617,0.2916,0.2917,0.2918,0,0.2104,0.2101,0.2126,0.2128,0.2138,0.2155,0.2172,0.2246,0.2285,0.2414,0.2443,0.257,0.2653,0.2797,0.2856,0.2929,0.2832,0.2922,0.2864,0.2847,0.2818,0.2667,0.2589,0.2854,0.2854,0.2854,0.2854,0,0.2036,0.2049,0.2052,0.2057,0.2065,0.2071,0.2112,0.2132,0.2237,0.2302,0.2413,0.2498,0.2685,0.2777,0.29,0.2929,0.2816,0.2927,0.2917,0.2785,0.2614,0.2533,0.279,0.2856,0.2856,0.2855,0.2855,0.2855,0.1984,0.197,0.1987,0.198,0.1988,0.1987,0.1966,0.2041,0.209,0.2182,0.2324,0.2439,0.2676,0.2862,0.2872,0.2935,0.2829,0.2902,0.287,0.2724,0.2611,0.2881,0.295,0.2951,0.2951,0.2951,0.2952,0,0.1923,0.192,0.1914,0.1897,0.1869,0.1904,0.1924,0.1906,0.1935,0.209,0.2187,0.2437,0.2611,0.278,0.2963,0.291,0.2735,0.2855,0.2645,0.2573,0.2853,0.2825,0.2861,0.2861,0.2861,0.2861,0.2861,0.2861,0.1895,0.1864,0.1855,0.1783,0.177,0.1705,0.1692,0.1698,0.1782,0.1902,0.2049,0.221,0.2578,0.2917,0.3,0.2918,0.2684,0.2591,0.2521,0.2772,0.2773,0.2775,0.2742,0.276,0.276,0.2159,0.2154,0.2151]},{"header":{"parameterUnit":"m.s-1","parameterCategory":2,"la1":30.2991,"la2":30.254,"lo1":-89.0895,"lo2":-89.0444,"dy":0.0017,"dx":0.0017,"nx":28,"ny":28,"refTime":"2025-04-03T09:00:00:Z","depth":"0","parameterNumber":3,"parameterNumberName":"V-component_of_CURRENTS"},"data":[0,0,0,0,0,0,0,0,0,0,0,0,0,0,0,0,0,0,0,0,0,0,0,0,0,0,0,0,0,0,0,0,0,0,0,0,0,0,0,0,0,0,0,0,0,0,0,0,0,0,0,0,0,0,0,0,0,0,-0.0056,-0.0057,0,-0.0123,-0.0124,-0.0124,-0.0166,-0.0167,-0.0167,-0.0167,-0.0281,-0.0284,-0.0287,0,0,0,0,0,0,0,0,0,0,0,0,0,-0.0002,-0.0003,-0.0056,-0.0057,-0.0058,-0.0123,-0.0124,-0.0125,-0.0166,-0.0167,-0.0167,-0.0167,-0.028,-0.0284,-0.0287,0,0,0,0,0,0,0,0,0,0,0,0,0,-0.0043,-0.0003,-0.0056,-0.0086,-0.009,-0.0123,-0.0124,-0.0125,-0.0166,-0.0167,-0.0167,-0.0167,-0.0279,-0.0283,-0.0288,-0.0307,0,0,-0.0301,-0.0302,0,0,0,0,0,0,0,0,-0.004,-0.0045,-0.0081,-0.0084,-0.0088,-0.0136,-0.0147,-0.0188,-0.0166,-0.0137,-0.0167,-0.0167,-0.0237,-0.0245,-0.0256,-0.0313,-0.0318,-0.0301,-0.0304,-0.0305,-0.0307,0,0,0,0,0,0,0,-0.0038,-0.0042,-0.0083,-0.0082,-0.0086,-0.0109,-0.0115,-0.0155,-0.0186,-0.014,-0.0143,-0.015,-0.0239,-0.0252,-0.0259,-0.0319,-0.0301,-0.0305,-0.0307,-0.0309,-0.0397,-0.0397,0,0,0,0,0,0,-0.0027,-0.0039,-0.0081,-0.0085,-0.0064,-0.011,-0.0116,-0.0121,-0.0184,-0.0194,-0.015,-0.0152,-0.0244,-0.0254,-0.0263,-0.0276,-0.0305,-0.0309,-0.0312,-0.0397,-0.0397,-0.0397,0,0,0,0,0,0,-0.0025,-0.003,-0.0078,-0.0064,-0.0071,-0.011,-0.0115,-0.0122,-0.0133,-0.0191,-0.0202,-0.0153,-0.0245,-0.0257,-0.0288,-0.0282,-0.0311,-0.0315,-0.0398,-0.0397,-0.0397,-0.0311,0,0,0,0,0,0,-0.0023,-0.0029,-0.0026,-0.0063,-0.0072,-0.0087,-0.0115,-0.0123,-0.0136,-0.014,-0.0197,-0.0208,-0.0246,-0.0281,-0.0292,-0.0288,-0.0318,-0.0398,-0.0398,-0.0397,-0.0314,-0.0308,-0.0303,0,0,0,0,0,-0.0021,-0.0013,-0.0025,-0.0031,-0.0068,-0.0086,-0.0092,-0.0122,-0.0136,-0.0134,-0.0172,-0.0206,-0.0287,-0.0284,-0.0297,-0.0294,-0.0398,-0.0398,-0.0397,-0.0317,-0.0309,-0.0303,0,0,0,0,0,0,0.0014,-0.0018,-0.0032,-0.0034,-0.0054,-0.0093,-0.0094,-0.0115,-0.0143,-0.0149,-0.0203,-0.0216,-0.0241,-0.028,-0.0276,-0.0319,-0.0349,-0.0351,-0.0284,-0.0277,-0.0272,-0.0254,-0.0322,0,0,0,0,0,0.0022,0.0019,-0.0013,-0.0013,-0.0021,-0.0057,-0.0068,-0.0087,-0.0118,-0.0131,-0.017,-0.0215,-0.025,-0.0272,-0.0309,-0.0333,-0.0362,-0.0341,-0.0335,-0.033,-0.0325,-0.0355,-0.0351,-0.0395,-0.0395,-0.0395,0,0,0.0036,0.0019,0.0017,-0.0006,-0.0025,-0.0029,-0.0064,-0.0075,-0.008,-0.014,-0.0156,-0.0195,-0.0251,-0.0273,-0.0289,-0.0305,-0.0331,-0.0329,-0.0324,-0.0322,-0.0354,-0.035,-0.0346,-0.0395,-0.0395,-0.0395,0,0,0.0065,0.0047,0.0055,0.0041,0.0017,-0.0005,-0.0004,-0.0039,-0.0054,-0.0076,-0.0117,-0.0145,-0.0206,-0.0236,-0.0262,-0.0249,-0.0297,-0.0267,-0.0226,-0.0255,-0.0251,-0.0248,-0.027,-0.0269,-0.0266,-0.0266,-0.0266,0,0.0086,0.0085,0.0056,0.0059,0.0054,0.0011,0.0021,-0.0002,-0.0041,-0.0048,-0.0071,-0.0142,-0.0186,-0.0211,-0.0207,-0.0234,-0.0258,-0.0244,-0.0245,-0.0243,-0.0242,-0.0265,-0.0265,-0.0262,-0.0262,-0.0263,-0.0263,0,0.0115,0.0116,0.0121,0.011,0.0102,0.0104,0.0071,0.0062,0.0036,0.001,-0.0017,-0.0074,-0.0114,-0.0134,-0.0169,-0.018,-0.0202,-0.0229,-0.0257,-0.0232,-0.0258,-0.026,-0.0256,-0.0257,-0.0258,-0.0259,0,0,0.0166,0.0147,0.015,0.0156,0.0131,0.0131,0.0126,0.0112,0.0116,0.0069,0.0069,0.0008,-0.0022,-0.0054,-0.01,-0.0128,-0.0135,-0.0169,-0.0173,-0.018,-0.0193,-0.0203,-0.0207,-0.0162,-0.0163,-0.0163,-0.0212,0,0.0202,0.022,0.0199,0.0223,0.0232,0.0199,0.0202,0.0183,0.0156,0.0144,0.0085,0.0063,0.0007,-0.0007,-0.0043,-0.0113,-0.014,-0.0119,-0.0227,-0.023,-0.0233,-0.0209,-0.0187,-0.0228,-0.0214,-0.0215,-0.0215,0,0.0241,0.0248,0.0274,0.0283,0.0286,0.0291,0.0295,0.029,0.0257,0.0236,0.0199,0.0152,0.0105,0.0055,-0.0046,-0.0031,-0.0102,-0.0159,-0.0163,-0.0204,-0.0244,-0.0256,-0.0234,-0.0359,-0.0219,-0.0219,-0.0219,0,0.0293,0.0306,0.033,0.0331,0.0329,0.034,0.0338,0.0318,0.0328,0.0293,0.0297,0.0225,0.0197,0.0099,-0.0019,-0.0033,-0.013,-0.0166,-0.024,-0.0242,-0.0261,-0.0264,-0.0363,-0.0232,-0.0232,-0.0232,-0.0231,0,0.0339,0.0363,0.0356,0.0371,0.0409,0.0389,0.0421,0.0409,0.0403,0.0426,0.0349,0.0355,0.0207,0.0133,0.0012,-0.0114,-0.0107,-0.0225,-0.0253,-0.023,-0.0229,-0.0371,-0.0463,-0.0233,-0.0233,-0.0233,-0.0232,0,0.0386,0.0381,0.0414,0.0424,0.0431,0.0455,0.0477,0.0502,0.0487,0.0515,0.0512,0.0454,0.0363,0.0213,0.0057,-0.0061,-0.0276,-0.0238,-0.0196,-0.0218,-0.0405,-0.0493,-0.0653,-0.0755,-0.0325,-0.0326,-0.0326,0,0.0411,0.0429,0.0455,0.0479,0.0482,0.0512,0.0539,0.054,0.0573,0.0582,0.0611,0.0542,0.0513,0.0283,0.0065,-0.0139,-0.029,-0.0264,-0.029,-0.0405,-0.0525,-0.0593,-0.0673,-0.0281,-0.0281,-0.0281,-0.0281,0,0.0458,0.0462,0.0486,0.0532,0.0566,0.0607,0.0647,0.069,0.0702,0.0737,0.0774,0.0757,0.0554,0.037,0.0088,-0.0068,-0.0374,-0.0271,-0.0405,-0.0507,-0.0575,-0.0689,-0.0258,-0.0281,-0.0281,-0.0281,-0.0281,-0.0281,0.0494,0.0516,0.0545,0.0589,0.0632,0.0693,0.0735,0.0797,0.0866,0.0932,0.0912,0.0934,0.0666,0.0295,0.0047,-0.0349,-0.0392,-0.0462,-0.0561,-0.0619,-0.0717,-0.0281,-0.0328,-0.0328,-0.0329,-0.0329,-0.0329,0,0.0536,0.0557,0.0601,0.0652,0.0703,0.0718,0.0803,0.0855,0.0949,0.1047,0.1089,0.1033,0.0667,0.0293,-0.0239,-0.0556,-0.071,-0.074,-0.0834,-0.0907,-0.0518,-0.0513,-0.0584,-0.0584,-0.0584,-0.0584,-0.0584,-0.0584,0.056,0.0602,0.0616,0.0698,0.0739,0.0809,0.0858,0.0947,0.1039,0.1179,0.1261,0.1305,0.1106,0.007,-0.0629,-0.0822,-0.1097,-0.1143,-0.1306,-0.1024,-0.1005,-0.0987,-0.1003,-0.1175,-0.1176,-0.1645,-0.165,-0.1653]}],[{"header":{"parameterUnit":"m.s-1","parameterCategory":2,"la1":30.2991,"la2":30.254,"lo1":-89.0895,"lo2":-89.0444,"dy":0.0017,"dx":0.0017,"nx":28,"ny":28,"refTime":"2025-04-03T09:00:00:Z","depth":"2","parameterNumber":2,"parameterNumberName":"U-component_of_CURRENTS"},"data":[0,0,0,0,0,0,0,0,0,0,0,0,0,0,0,0,0,0,0,0,0,0,0,0,0,0,0,0,0,0,0,0,0,0,0,0,0,0,0,0,0,0,0,0,0,0,0,0,0,0,0,0,0,0,0,0,0,0,0.2332,0.2332,0,0.2352,0.2352,0.2352,0.233,0.2329,0.2329,0.2328,0.2352,0.2353,0.2355,0,0,0,0,0,0,0,0,0,0,0,0,0,0.2252,0.2254,0.2332,0.2332,0.2333,0.2352,0.2352,0.2352,0.233,0.2329,0.2328,0.2328,0.2352,0.2353,0.2355,0,0,0,0,0,0,0,0,0,0,0,0,0,0.2278,0.2254,0.2332,0.2327,0.2327,0.2352,0.2352,0.2352,0.233,0.2329,0.2328,0.2328,0.2351,0.2353,0.2355,0.2381,0,0,0.236,0.2361,0,0,0,0,0,0,0,0,0.2276,0.228,0.2327,0.2327,0.2327,0.234,0.2333,0.2363,0.233,0.2325,0.2328,0.2327,0.2352,0.2353,0.2354,0.2382,0.2383,0.236,0.2361,0.2362,0.2362,0,0,0,0,0,0,0,0.2275,0.2279,0.2336,0.2328,0.2328,0.2316,0.2319,0.2338,0.234,0.2325,0.2325,0.2333,0.2351,0.2352,0.2354,0.2384,0.236,0.2362,0.2363,0.2363,0.2443,0.2444,0,0,0,0,0,0,0.2281,0.2278,0.2336,0.2337,0.2303,0.2319,0.2321,0.2334,0.234,0.2341,0.2333,0.2332,0.235,0.2352,0.2355,0.238,0.2362,0.2364,0.2364,0.2442,0.2443,0.2444,0,0,0,0,0,0,0.228,0.2287,0.2335,0.231,0.2316,0.2321,0.2336,0.2335,0.2338,0.2346,0.2346,0.2337,0.2349,0.2353,0.239,0.2381,0.2364,0.2366,0.2441,0.2442,0.2444,0.2436,0,0,0,0,0,0,0.2277,0.2286,0.2299,0.2311,0.2318,0.2349,0.2337,0.2336,0.2346,0.2344,0.235,0.2351,0.2349,0.2388,0.2392,0.2383,0.2367,0.2439,0.2441,0.2443,0.2434,0.2437,0.2439,0,0,0,0,0,0.2275,0.2295,0.23,0.2307,0.2335,0.235,0.2352,0.235,0.2347,0.2349,0.2368,0.2351,0.2402,0.2391,0.2395,0.2387,0.2438,0.2441,0.2443,0.2433,0.2436,0.2439,0,0,0,0,0,0,0.2272,0.2295,0.2301,0.2329,0.234,0.2348,0.2359,0.2357,0.2372,0.2378,0.2377,0.238,0.2402,0.2411,0.2397,0.2419,0.2413,0.2416,0.2404,0.2407,0.2409,0.2407,0.2369,0,0,0,0,0,0.2279,0.2297,0.2315,0.2338,0.2348,0.2355,0.2363,0.2364,0.238,0.2385,0.2392,0.2406,0.2417,0.2426,0.2439,0.2463,0.2478,0.2459,0.2461,0.2463,0.2466,0.2493,0.2497,0.2452,0.2452,0.2452,0,0,0.2284,0.2301,0.2311,0.2338,0.235,0.2362,0.2357,0.2376,0.2382,0.2389,0.2408,0.2417,0.2427,0.2445,0.2455,0.245,0.2487,0.2466,0.2467,0.247,0.2496,0.25,0.2504,0.2454,0.2454,0.2453,0,0,0.2297,0.2321,0.2335,0.2348,0.2372,0.2377,0.2384,0.24,0.2403,0.243,0.2429,0.2444,0.2466,0.2466,0.2468,0.2497,0.2497,0.2496,0.2503,0.2528,0.2532,0.2535,0.2567,0.2573,0.2496,0.2496,0.2496,0,0.2303,0.232,0.2341,0.2358,0.2366,0.2384,0.2392,0.2406,0.243,0.2438,0.2437,0.2468,0.2471,0.2485,0.2488,0.2498,0.252,0.2486,0.2529,0.2532,0.2536,0.2568,0.2575,0.2496,0.2496,0.2496,0.2496,0,0.232,0.2334,0.2347,0.2369,0.2383,0.2396,0.2417,0.2434,0.2442,0.2451,0.2474,0.2487,0.2502,0.2498,0.25,0.252,0.2532,0.2526,0.2516,0.254,0.2573,0.258,0.2496,0.2496,0.2496,0.2496,0,0,0.2316,0.235,0.2348,0.2353,0.2386,0.2395,0.2421,0.2438,0.2455,0.2476,0.2492,0.2502,0.2512,0.2518,0.252,0.2536,0.2573,0.2542,0.2543,0.2563,0.2642,0.2654,0.2663,0.2576,0.2577,0.2578,0.2658,0,0.2312,0.2331,0.235,0.2359,0.2367,0.2394,0.2414,0.244,0.2463,0.2492,0.2506,0.2528,0.2519,0.2528,0.2544,0.2571,0.2592,0.2553,0.2627,0.2629,0.2627,0.2671,0.2435,0.2487,0.2665,0.2666,0.2667,0,0.2302,0.2316,0.2323,0.2344,0.2352,0.2364,0.2395,0.2418,0.247,0.2492,0.2523,0.2546,0.2579,0.2566,0.2625,0.2605,0.2624,0.264,0.2643,0.2661,0.2654,0.2493,0.2493,0.2679,0.2678,0.2677,0.2676,0,0.2258,0.2285,0.2284,0.2293,0.2332,0.234,0.2363,0.2413,0.2437,0.2499,0.2528,0.2574,0.2606,0.2638,0.268,0.2658,0.275,0.2723,0.2752,0.2753,0.2571,0.2555,0.2762,0.2762,0.2762,0.2761,0.2761,0,0.2226,0.222,0.2264,0.2261,0.2265,0.2312,0.2326,0.2364,0.2427,0.2462,0.2525,0.2566,0.2626,0.2686,0.2706,0.2768,0.2776,0.2769,0.2779,0.2565,0.2548,0.2725,0.2719,0.2764,0.2764,0.2763,0.2763,0,0.2161,0.219,0.2188,0.2228,0.2238,0.2241,0.229,0.2313,0.2387,0.2438,0.2462,0.2574,0.2667,0.273,0.2802,0.281,0.2858,0.287,0.2627,0.2608,0.2835,0.2829,0.2914,0.2915,0.2916,0.2917,0.2917,0,0.2125,0.2122,0.2149,0.2151,0.2162,0.218,0.2198,0.2272,0.231,0.2437,0.2466,0.2588,0.2664,0.2801,0.2822,0.2883,0.2909,0.2708,0.2623,0.2852,0.2853,0.2845,0.2837,0.2374,0.237,0.2367,0.2364,0,0.2058,0.2071,0.2076,0.2082,0.2091,0.2098,0.214,0.216,0.2263,0.2324,0.2431,0.2509,0.2655,0.2633,0.2734,0.2726,0.2683,0.2652,0.294,0.2391,0.2355,0.2353,0.236,0.2337,0.2339,0.2341,0.2343,0.2344,0.2008,0.1995,0.2012,0.2006,0.2016,0.2015,0.1996,0.2062,0.2106,0.2176,0.2315,0.2363,0.2441,0.249,0.2449,0.2422,0.261,0.249,0.2494,0.2502,0.2445,0.2414,0.2396,0.2399,0.2402,0.2404,0.2406,0,0.1945,0.1946,0.1941,0.1925,0.1898,0.1934,0.1954,0.1929,0.1945,0.2045,0.2112,0.2014,0.2033,0.2107,0.2035,0.2087,0.1995,0.2001,0.1841,0.1873,0.1901,0.1805,0.1591,0.1588,0.1585,0.1583,0,0,0.1917,0.1886,0.1878,0.1809,0.18,0.1737,0.1724,0.1718,0.176,0.176,0.1773,0.1921,0.2054,0.1779,0.1774,0.1667,0.1739,0.16,0.2261,0.2104,0.2127,0.2206,0.2101,0,0,0,0,0]},{"header":{"parameterUnit":"m.s-1","parameterCategory":2,"la1":30.2991,"la2":30.254,"lo1":-89.0895,"lo2":-89.0444,"dy":0.0017,"dx":0.0017,"nx":28,"ny":28,"refTime":"2025-04-03T09:00:00:Z","depth":"2","parameterNumber":3,"parameterNumberName":"V-component_of_CURRENTS"},"data":[0,0,0,0,0,0,0,0,0,0,0,0,0,0,0,0,0,0,0,0,0,0,0,0,0,0,0,0,0,0,0,0,0,0,0,0,0,0,0,0,0,0,0,0,0,0,0,0,0,0,0,0,0,0,0,0,0,0,-0.0097,-0.0098,0,-0.0164,-0.0165,-0.0165,-0.0206,-0.0206,-0.0206,-0.0206,-0.0318,-0.0321,-0.0324,0,0,0,0,0,0,0,0,0,0,0,0,0,-0.0053,-0.0053,-0.0097,-0.0098,-0.0099,-0.0164,-0.0165,-0.0166,-0.0206,-0.0206,-0.0206,-0.0206,-0.0317,-0.0321,-0.0324,0,0,0,0,0,0,0,0,0,0,0,0,0,-0.0091,-0.0053,-0.0097,-0.0126,-0.0129,-0.0163,-0.0165,-0.0166,-0.0206,-0.0206,-0.0206,-0.0206,-0.0316,-0.032,-0.0325,-0.0346,0,0,-0.0338,-0.0339,0,0,0,0,0,0,0,0,-0.0089,-0.0093,-0.0121,-0.0124,-0.0128,-0.0176,-0.019,-0.0228,-0.0206,-0.0177,-0.0206,-0.0206,-0.0275,-0.0282,-0.0294,-0.0351,-0.0356,-0.0338,-0.034,-0.0342,-0.0344,0,0,0,0,0,0,0,-0.0086,-0.009,-0.0124,-0.0122,-0.0126,-0.0153,-0.0158,-0.0197,-0.0225,-0.018,-0.0183,-0.0189,-0.0277,-0.029,-0.0297,-0.0358,-0.0338,-0.0342,-0.0344,-0.0346,-0.0431,-0.0431,0,0,0,0,0,0,-0.0074,-0.0087,-0.0122,-0.0126,-0.0108,-0.0153,-0.0159,-0.0161,-0.0224,-0.0233,-0.0189,-0.0191,-0.0283,-0.0292,-0.0301,-0.0313,-0.0342,-0.0346,-0.0349,-0.0431,-0.0431,-0.0431,0,0,0,0,0,0,-0.0073,-0.0076,-0.0119,-0.0108,-0.0115,-0.0153,-0.0155,-0.0162,-0.0173,-0.023,-0.024,-0.0193,-0.0283,-0.0295,-0.0327,-0.0318,-0.0348,-0.0352,-0.0432,-0.0431,-0.0431,-0.0347,0,0,0,0,0,0,-0.0071,-0.0075,-0.0071,-0.0107,-0.0116,-0.0134,-0.0155,-0.0163,-0.0177,-0.018,-0.0237,-0.0247,-0.0284,-0.032,-0.0331,-0.0324,-0.0355,-0.0432,-0.0431,-0.0431,-0.035,-0.0344,-0.0338,0,0,0,0,0,-0.0069,-0.006,-0.007,-0.0074,-0.0109,-0.0133,-0.014,-0.0168,-0.0176,-0.0179,-0.0213,-0.0246,-0.0325,-0.0324,-0.0337,-0.033,-0.0432,-0.0432,-0.0431,-0.0353,-0.0345,-0.0338,0,0,0,0,0,0,-0.0036,-0.0064,-0.0076,-0.0075,-0.01,-0.014,-0.0142,-0.0163,-0.0191,-0.019,-0.0243,-0.0256,-0.028,-0.0318,-0.0315,-0.0354,-0.0384,-0.0386,-0.032,-0.0313,-0.0307,-0.0292,-0.0359,0,0,0,0,0,-0.0026,-0.0027,-0.0061,-0.0059,-0.0068,-0.0104,-0.0116,-0.0135,-0.0165,-0.0177,-0.0215,-0.0255,-0.0288,-0.031,-0.0345,-0.0369,-0.0399,-0.0374,-0.0368,-0.0363,-0.036,-0.039,-0.0386,-0.0429,-0.0429,-0.0429,0,0,-0.0013,-0.0028,-0.0028,-0.0052,-0.0072,-0.0077,-0.0112,-0.0123,-0.0127,-0.0186,-0.0198,-0.0235,-0.0289,-0.031,-0.0325,-0.0341,-0.0365,-0.0362,-0.0357,-0.0357,-0.0389,-0.0385,-0.0381,-0.0428,-0.0428,-0.0428,0,0,0.0017,0.0002,0.0011,-0.0006,-0.003,-0.0052,-0.0052,-0.0087,-0.0101,-0.0121,-0.0158,-0.0186,-0.0243,-0.0273,-0.0298,-0.0283,-0.033,-0.0298,-0.0259,-0.0289,-0.0285,-0.0282,-0.0304,-0.0304,-0.0298,-0.0297,-0.0297,0,0.0036,0.004,0.001,0.0013,0.0007,-0.0036,-0.0027,-0.0048,-0.0087,-0.0095,-0.0115,-0.0181,-0.0224,-0.0248,-0.0242,-0.0269,-0.0292,-0.0279,-0.0279,-0.0277,-0.0276,-0.0299,-0.03,-0.0293,-0.0294,-0.0294,-0.0295,0,0.0069,0.0071,0.0076,0.0068,0.0057,0.0057,0.0025,0.0016,-0.0006,-0.0032,-0.0058,-0.0113,-0.0153,-0.0171,-0.0205,-0.0216,-0.0236,-0.0263,-0.0292,-0.0266,-0.0293,-0.0295,-0.0287,-0.0289,-0.029,-0.0291,0,0,0.0119,0.0103,0.0106,0.0112,0.0087,0.0085,0.0082,0.0066,0.007,0.0026,0.0025,-0.0033,-0.0063,-0.0093,-0.0138,-0.0166,-0.0174,-0.0206,-0.021,-0.0218,-0.0233,-0.0242,-0.0246,-0.0201,-0.0201,-0.0201,-0.025,0,0.0156,0.0175,0.0157,0.018,0.0187,0.0154,0.0157,0.0137,0.0111,0.0099,0.004,0.0019,-0.0035,-0.0048,-0.0084,-0.0153,-0.0179,-0.0158,-0.0266,-0.0269,-0.0272,-0.0248,-0.0241,-0.0284,-0.0253,-0.0254,-0.0254,0,0.0198,0.0204,0.023,0.0236,0.0239,0.0244,0.0246,0.0241,0.0207,0.0187,0.015,0.0105,0.0058,0.001,-0.0091,-0.0075,-0.0144,-0.02,-0.0204,-0.0244,-0.0282,-0.0309,-0.0291,-0.0259,-0.0258,-0.0258,-0.0258,0,0.0249,0.026,0.0284,0.0284,0.0281,0.0291,0.0289,0.0268,0.0277,0.0242,0.0246,0.0173,0.0147,0.0049,-0.0066,-0.0078,-0.0176,-0.021,-0.0282,-0.0284,-0.0315,-0.0319,-0.0276,-0.0276,-0.0276,-0.0276,-0.0275,0,0.0293,0.0315,0.0309,0.0323,0.0359,0.0339,0.0369,0.0356,0.035,0.0371,0.0296,0.0301,0.0156,0.0082,-0.0036,-0.016,-0.0155,-0.0268,-0.0295,-0.0285,-0.0285,-0.03,-0.0302,-0.0277,-0.0277,-0.0277,-0.0276,0,0.0339,0.0334,0.0365,0.0373,0.038,0.0404,0.0424,0.0448,0.0433,0.0459,0.0456,0.0398,0.0307,0.016,0.0006,-0.0109,-0.0237,-0.0284,-0.0257,-0.0279,-0.0333,-0.033,-0.0368,-0.0368,-0.0369,-0.0369,-0.037,0,0.0363,0.0381,0.0405,0.0428,0.0432,0.046,0.0486,0.0485,0.0517,0.0525,0.0551,0.0483,0.045,0.0223,0.0005,-0.0197,-0.0224,-0.0325,-0.035,-0.0319,-0.0342,-0.0338,-0.0335,-0.0359,-0.0359,-0.036,-0.036,0,0.0408,0.0413,0.0435,0.0481,0.0513,0.0553,0.0591,0.0632,0.0643,0.0673,0.0707,0.0687,0.0482,0.0283,0.0003,-0.0142,-0.0294,-0.0336,-0.0313,-0.0332,-0.0314,-0.0335,-0.0332,-0.0362,-0.0362,-0.0362,-0.0361,-0.0361,0.0443,0.0464,0.0493,0.0536,0.0578,0.0637,0.0677,0.0721,0.0782,0.081,0.0808,0.0763,0.0558,0.0195,-0.0036,-0.0298,-0.0291,-0.0392,-0.039,-0.0388,-0.0374,-0.0357,-0.041,-0.041,-0.041,-0.041,-0.041,0,0.0476,0.0504,0.0547,0.0597,0.0638,0.0663,0.0744,0.0761,0.0827,0.0857,0.0867,0.0668,0.0469,0.0228,-0.0156,-0.0369,-0.0394,-0.0441,-0.0422,-0.0419,-0.0416,-0.0402,-0.0447,-0.0447,-0.0448,-0.0448,0,0,0.0497,0.0534,0.0548,0.0623,0.0671,0.0717,0.0764,0.0793,0.0814,0.0822,0.0806,0.0777,0.0523,0.0247,-0.0036,-0.0246,-0.0292,-0.0296,-0.0248,-0.0192,-0.0186,-0.0372,-0.0345,0,0,0,0,0]}],[{"header":{"parameterUnit":"m.s-1","parameterCategory":2,"la1":30.2991,"la2":30.254,"lo1":-89.0895,"lo2":-89.0444,"dy":0.0017,"dx":0.0017,"nx":28,"ny":28,"refTime":"2025-04-03T09:00:00:Z","depth":"4","parameterNumber":2,"parameterNumberName":"U-component_of_CURRENTS"},"data":[0,0,0,0,0,0,0,0,0,0,0,0,0,0,0,0,0,0,0,0,0,0,0,0,0,0,0,0,0,0,0,0,0,0,0,0,0,0,0,0,0,0,0,0,0,0,0,0,0,0,0,0,0,0,0,0,0,0,0.1482,0.1483,0,0.1545,0.1545,0.1546,0.1581,0.1581,0.1582,0.1582,0.1623,0.1623,0.1624,0,0,0,0,0,0,0,0,0,0,0,0,0,0.1394,0.1395,0.1482,0.1483,0.1484,0.1545,0.1545,0.1546,0.1581,0.1581,0.1582,0.1582,0.1622,0.1623,0.1624,0,0,0,0,0,0,0,0,0,0,0,0,0,0.1439,0.1395,0.1482,0.1511,0.1514,0.1545,0.1545,0.1546,0.1581,0.1581,0.1582,0.1582,0.1622,0.1623,0.1624,0.162,0,0,0.1628,0.1628,0,0,0,0,0,0,0,0,0.1437,0.1442,0.1506,0.1509,0.1513,0.1558,0.153,0.1571,0.1581,0.1553,0.1582,0.1583,0.16,0.1603,0.161,0.1622,0.1624,0.1628,0.1628,0.1629,0.1629,0,0,0,0,0,0,0,0.1433,0.144,0.1504,0.1507,0.1511,0.1522,0.1528,0.1537,0.157,0.1555,0.1558,0.157,0.1602,0.1609,0.1611,0.1625,0.1628,0.1629,0.1629,0.163,0.1731,0.1733,0,0,0,0,0,0,0.1431,0.1437,0.1502,0.1506,0.1479,0.1523,0.153,0.1541,0.1571,0.1577,0.1569,0.1571,0.1607,0.161,0.1613,0.1692,0.1629,0.163,0.1631,0.1729,0.1731,0.1733,0,0,0,0,0,0,0.1429,0.1436,0.15,0.1475,0.1484,0.1524,0.1535,0.1542,0.1582,0.1582,0.1587,0.1607,0.1607,0.1611,0.1652,0.169,0.163,0.1632,0.1726,0.173,0.1732,0.1797,0,0,0,0,0,0,0.1426,0.1435,0.1456,0.1475,0.1486,0.1539,0.1535,0.1543,0.1587,0.1591,0.1615,0.1618,0.1608,0.165,0.1653,0.1691,0.1632,0.1724,0.1728,0.1731,0.1792,0.1801,0.181,0,0,0,0,0,0.1422,0.1446,0.1457,0.1466,0.1509,0.1541,0.1547,0.1575,0.1589,0.1612,0.1632,0.1619,0.1676,0.1652,0.1655,0.1694,0.1722,0.1727,0.1731,0.1788,0.18,0.1809,0,0,0,0,0,0,0.1417,0.1453,0.1465,0.1498,0.1528,0.1548,0.158,0.1595,0.1629,0.1644,0.1639,0.1644,0.1696,0.1688,0.1662,0.1737,0.1699,0.1705,0.1742,0.1753,0.1761,0.1751,0.1633,0,0,0,0,0,0.1426,0.1459,0.1485,0.1518,0.1535,0.1564,0.1587,0.1606,0.1632,0.165,0.1666,0.1688,0.1712,0.1727,0.1744,0.1779,0.1774,0.1809,0.1818,0.1826,0.1821,0.185,0.186,0.1748,0.1748,0.1748,0,0,0.1433,0.146,0.1479,0.1521,0.1547,0.1575,0.158,0.1627,0.1656,0.1648,0.1703,0.1722,0.173,0.1774,0.1797,0.1774,0.1859,0.1831,0.1837,0.1828,0.1856,0.1866,0.1876,0.1751,0.1751,0.175,0,0,0.1454,0.1489,0.1519,0.1547,0.1597,0.1612,0.1633,0.1673,0.1702,0.175,0.1757,0.1798,0.1833,0.1844,0.1853,0.1921,0.1908,0.1939,0.197,0.2,0.2009,0.2016,0.2037,0.2046,0.1939,0.1939,0.1939,0,0.1461,0.15,0.1533,0.1566,0.1594,0.1631,0.1662,0.1694,0.1744,0.177,0.178,0.1851,0.1862,0.1907,0.1935,0.194,0.1952,0.1927,0.201,0.2017,0.2024,0.2043,0.2052,0.1943,0.1943,0.1942,0.1942,0,0.1492,0.1533,0.1557,0.1607,0.164,0.168,0.172,0.1765,0.1806,0.1833,0.1904,0.1926,0.1963,0.1984,0.198,0.2041,0.2034,0.202,0.1978,0.2039,0.2056,0.2064,0.1948,0.1947,0.1946,0.1945,0,0,0.1474,0.1559,0.1571,0.1601,0.1668,0.1694,0.1754,0.1807,0.1849,0.1909,0.196,0.2015,0.2037,0.2048,0.206,0.2087,0.2154,0.208,0.2079,0.2091,0.2223,0.2098,0.2095,0.2159,0.2161,0.2162,0.2219,0,0.1488,0.1551,0.1592,0.1653,0.1684,0.1738,0.1785,0.1843,0.1896,0.1956,0.2001,0.2057,0.2058,0.209,0.2121,0.2148,0.2177,0.214,0.2169,0.2169,0.2043,0.21,0.2167,0.2225,0.2227,0.2228,0.2229,0,0.1495,0.154,0.1601,0.1677,0.1697,0.1741,0.1823,0.1871,0.1956,0.2,0.2062,0.2097,0.2161,0.215,0.2222,0.2203,0.222,0.2232,0.2235,0.2095,0.2059,0.215,0.2243,0.2242,0.2241,0.224,0.2239,0,0.1457,0.1542,0.1593,0.1621,0.171,0.1755,0.1808,0.1891,0.1936,0.2034,0.2077,0.215,0.22,0.2237,0.2274,0.226,0.234,0.2318,0.222,0.2212,0.2277,0.2268,0.2363,0.2362,0.2362,0.2362,0.2362,0,0.1439,0.1483,0.1587,0.1614,0.1675,0.1748,0.1816,0.1878,0.1968,0.2015,0.21,0.2141,0.2227,0.2279,0.2297,0.2283,0.2362,0.2229,0.2218,0.2305,0.2299,0.2283,0.2273,0.2364,0.2364,0.2363,0.2363,0,0.1385,0.1455,0.1516,0.1623,0.1658,0.1705,0.181,0.1853,0.1952,0.2016,0.2052,0.2159,0.2222,0.2286,0.2351,0.2299,0.2305,0.2281,0.238,0.2374,0.2153,0.2146,0.2168,0.2164,0.216,0.2158,0.2155,0,0.1359,0.139,0.1508,0.1544,0.1599,0.1677,0.1724,0.1832,0.1874,0.2004,0.2023,0.2128,0.2183,0.217,0.2254,0.2279,0.2256,0.2242,0.2181,0.2145,0.2134,0.2132,0.213,0.215,0.2149,0.2148,0.2147,0,0.1307,0.1366,0.1417,0.1491,0.1553,0.1602,0.1681,0.1694,0.1811,0.1915,0.1938,0.197,0.2038,0.2084,0.2122,0.2136,0.2239,0.2207,0.2213,0.2156,0.2124,0.2115,0.2117,0.2136,0.2137,0.2138,0.2139,0,0.1272,0.1292,0.137,0.1421,0.1491,0.1509,0.1556,0.16,0.1647,0.1784,0.179,0.1901,0.2007,0.2012,0.2049,0.2053,0.2022,0.1951,0.197,0.1984,0.19,0.1831,0.1745,0,0,0,0,0,0.1227,0.1243,0.129,0.1337,0.1401,0.1439,0.152,0.1569,0.1674,0.1644,0.1707,0.1757,0.18,0.1867,0.1837,0.1992,0.2045,0.195,0.1976,0.2072,0.2085,0.2003,0,0,0,0,0,0,0.1197,0.1245,0.126,0.1255,0.127,0.1323,0.1368,0.1439,0.1425,0.1538,0.157,0.1661,0.1735,0.18,0.1806,0.1828,0.1811,0.2028,0.2024,0.2064,0.2076,0.2087,0.2008,0,0,0,0,0]},{"header":{"parameterUnit":"m.s-1","parameterCategory":2,"la1":30.2991,"la2":30.254,"lo1":-89.0895,"lo2":-89.0444,"dy":0.0017,"dx":0.0017,"nx":28,"ny":28,"refTime":"2025-04-03T09:00:00:Z","depth":"4","parameterNumber":3,"parameterNumberName":"V-component_of_CURRENTS"},"data":[0,0,0,0,0,0,0,0,0,0,0,0,0,0,0,0,0,0,0,0,0,0,0,0,0,0,0,0,0,0,0,0,0,0,0,0,0,0,0,0,0,0,0,0,0,0,0,0,0,0,0,0,0,0,0,0,0,0,-0.0066,-0.0066,0,-0.0104,-0.0104,-0.0105,-0.0139,-0.0139,-0.014,-0.014,-0.0193,-0.0194,-0.0195,0,0,0,0,0,0,0,0,0,0,0,0,0,-0.0051,-0.0051,-0.0066,-0.0066,-0.0067,-0.0104,-0.0104,-0.0105,-0.0139,-0.0139,-0.014,-0.014,-0.0193,-0.0194,-0.0195,0,0,0,0,0,0,0,0,0,0,0,0,0,-0.0069,-0.0051,-0.0066,-0.0089,-0.0091,-0.0104,-0.0104,-0.0105,-0.0139,-0.0139,-0.014,-0.0141,-0.0192,-0.0194,-0.0195,-0.0191,0,0,-0.02,-0.02,0,0,0,0,0,0,0,0,-0.0068,-0.007,-0.0085,-0.0087,-0.009,-0.0118,-0.0118,-0.0134,-0.0138,-0.012,-0.014,-0.0141,-0.0169,-0.0172,-0.0177,-0.0193,-0.0196,-0.02,-0.0201,-0.0201,-0.0202,0,0,0,0,0,0,0,-0.0067,-0.0069,-0.0081,-0.0085,-0.0088,-0.0106,-0.011,-0.0122,-0.014,-0.0122,-0.0124,-0.0129,-0.017,-0.0176,-0.0179,-0.0196,-0.02,-0.0201,-0.0202,-0.0203,-0.0237,-0.0237,0,0,0,0,0,0,-0.0061,-0.0067,-0.0079,-0.0082,-0.0081,-0.0106,-0.011,-0.0108,-0.014,-0.0145,-0.0128,-0.013,-0.0173,-0.0177,-0.0181,-0.0191,-0.0201,-0.0203,-0.0204,-0.0237,-0.0237,-0.0237,0,0,0,0,0,0,-0.006,-0.0061,-0.0078,-0.0076,-0.008,-0.0105,-0.0103,-0.0108,-0.0117,-0.0145,-0.0151,-0.0133,-0.0173,-0.0179,-0.0194,-0.0193,-0.0203,-0.0205,-0.0237,-0.0237,-0.0237,-0.0204,0,0,0,0,0,0,-0.0059,-0.006,-0.0056,-0.0075,-0.0079,-0.0083,-0.0103,-0.0108,-0.0119,-0.0122,-0.0151,-0.0156,-0.0174,-0.0192,-0.0196,-0.0195,-0.0206,-0.0237,-0.0237,-0.0237,-0.0205,-0.0203,-0.0201,0,0,0,0,0,-0.0059,-0.0045,-0.0056,-0.0057,-0.0073,-0.0082,-0.0086,-0.0107,-0.0119,-0.0118,-0.0141,-0.0156,-0.0195,-0.0193,-0.0197,-0.0198,-0.0237,-0.0237,-0.0237,-0.0206,-0.0203,-0.0201,0,0,0,0,0,0,-0.0033,-0.0048,-0.006,-0.0051,-0.0066,-0.0088,-0.0088,-0.0104,-0.0121,-0.0124,-0.0153,-0.016,-0.0175,-0.0189,-0.0186,-0.0208,-0.0219,-0.022,-0.0194,-0.0192,-0.019,-0.0182,-0.0207,0,0,0,0,0,-0.0026,-0.0021,-0.0042,-0.0035,-0.0041,-0.0065,-0.0072,-0.0086,-0.0104,-0.0112,-0.0134,-0.0157,-0.0177,-0.0187,-0.0205,-0.0212,-0.0231,-0.0217,-0.0215,-0.0213,-0.021,-0.024,-0.024,-0.0237,-0.0237,-0.0237,0,0,-0.0014,-0.0021,-0.0019,-0.003,-0.0042,-0.0047,-0.007,-0.0076,-0.0082,-0.0115,-0.0127,-0.015,-0.0178,-0.0191,-0.0198,-0.0203,-0.0223,-0.0213,-0.0211,-0.021,-0.024,-0.024,-0.024,-0.0237,-0.0237,-0.0237,0,0,0.001,0.0006,0.0012,0.0002,-0.0015,-0.0029,-0.003,-0.0053,-0.0065,-0.0078,-0.0107,-0.0129,-0.0154,-0.0177,-0.0192,-0.0188,-0.0212,-0.0194,-0.0176,-0.0205,-0.0205,-0.0206,-0.0225,-0.0228,-0.0192,-0.0192,-0.0192,0,0.0023,0.0027,0.0013,0.0013,0.0007,-0.0019,-0.0018,-0.0031,-0.0057,-0.0065,-0.0077,-0.0124,-0.0148,-0.0171,-0.0172,-0.0184,-0.02,-0.0182,-0.0201,-0.0202,-0.0204,-0.0224,-0.0227,-0.019,-0.0191,-0.0191,-0.0191,0,0.0043,0.0045,0.005,0.004,0.0035,0.0035,0.0012,0.0004,-0.0013,-0.0032,-0.0057,-0.0092,-0.0119,-0.0133,-0.0152,-0.0173,-0.0182,-0.0196,-0.0205,-0.0202,-0.0224,-0.0228,-0.0188,-0.0189,-0.0189,-0.019,0,0,0.0074,0.0064,0.0066,0.0065,0.0049,0.0049,0.0042,0.0028,0.0026,-0.0006,-0.0014,-0.0058,-0.0079,-0.0097,-0.0127,-0.0154,-0.0178,-0.0174,-0.0177,-0.019,-0.0235,-0.0227,-0.0231,-0.0195,-0.0196,-0.0196,-0.0245,0,0.009,0.0097,0.0089,0.0098,0.0097,0.0079,0.0079,0.0064,0.0046,0.0034,-0.001,-0.0027,-0.0064,-0.0073,-0.0109,-0.0159,-0.0188,-0.0164,-0.024,-0.0242,-0.0232,-0.0235,-0.0198,-0.0248,-0.0249,-0.025,-0.025,0,0.0105,0.0109,0.0119,0.0123,0.0123,0.0128,0.0126,0.0122,0.0097,0.0084,0.0054,0.0024,-0.0019,-0.0049,-0.0137,-0.0118,-0.0173,-0.0216,-0.0219,-0.0226,-0.0242,-0.0255,-0.0258,-0.0257,-0.0257,-0.0256,-0.0256,0,0.0124,0.0131,0.0141,0.0141,0.0141,0.0148,0.015,0.0136,0.0143,0.0117,0.0123,0.006,0.0042,-0.004,-0.0125,-0.0131,-0.0219,-0.0239,-0.0287,-0.0287,-0.0294,-0.0293,-0.0305,-0.0305,-0.0304,-0.0304,-0.0304,0,0.0137,0.0147,0.0153,0.0159,0.0183,0.0174,0.0195,0.0188,0.0188,0.0204,0.0153,0.0153,0.0044,-0.0016,-0.0108,-0.0203,-0.0208,-0.0283,-0.0299,-0.0278,-0.0275,-0.0296,-0.0295,-0.0306,-0.0306,-0.0305,-0.0305,0,0.0146,0.0148,0.0166,0.018,0.0189,0.0206,0.0234,0.025,0.0247,0.0267,0.0267,0.0223,0.0149,0.0038,-0.0088,-0.0167,-0.0268,-0.0303,-0.026,-0.0274,-0.0322,-0.0318,-0.0361,-0.0361,-0.0361,-0.0361,-0.0361,0,0.0147,0.0157,0.0187,0.0207,0.0215,0.0241,0.0265,0.0275,0.0299,0.0312,0.0329,0.0277,0.0231,0.007,-0.006,-0.0231,-0.0262,-0.0317,-0.0335,-0.0316,-0.0329,-0.0325,-0.0321,-0.0362,-0.0362,-0.0362,-0.0362,0,0.0154,0.0167,0.0185,0.0227,0.0259,0.0295,0.033,0.0356,0.0375,0.038,0.0387,0.0309,0.0228,0.0088,-0.004,-0.0169,-0.0284,-0.0319,-0.0321,-0.0338,-0.0318,-0.0329,-0.0325,-0.0362,-0.0362,-0.0362,-0.0362,0,0.0163,0.0178,0.0206,0.0243,0.0288,0.0332,0.0351,0.0385,0.041,0.043,0.0431,0.0344,0.0294,0.0121,0.0,-0.0121,-0.0163,-0.0217,-0.0224,-0.0225,-0.0178,-0.0132,-0.0131,0,0,0,0,0,0.0167,0.0182,0.022,0.026,0.0308,0.0332,0.039,0.0407,0.0434,0.0449,0.0443,0.037,0.021,0.0143,0.0024,-0.0026,-0.0201,-0.0173,-0.027,-0.0364,-0.0364,-0.0331,0,0,0,0,0,0,0.0166,0.0197,0.0215,0.0268,0.0297,0.035,0.0386,0.0409,0.0419,0.0434,0.0358,0.0326,0.0173,0.0277,0.0018,-0.0019,-0.0101,-0.0245,-0.0248,-0.0365,-0.0364,-0.0364,-0.033,0,0,0,0,0]}]]